Tracking 28790 objects as of 19-Apr-2024
HD Live streaming from Space Station
objects crossing your sky now

STARLINK-3530

Track STARLINK-3530 now!
10-day predictions
STARLINK-3530 is classified as:


NORAD ID: 51730
Int'l Code: 2022-016S
Perigee: 545.6 km
Apogee: 548.1 km
Inclination: 53.2 °
Period: 95.4 minutes
Semi major axis: 6917 km
RCS: Unknown
Launch date: February 21, 2022
Source: United States (US)
Launch site: AIR FORCE EASTERN TEST RANGE (AFETR)
Your satellite tracking list
Your tracking list is empty




NASA's NSSDC Master Catalog

Two Line Element Set (TLE):
1 51730U 22016S   24110.17395505  .00004105  00000-0  27587-3 0  9992
2 51730  53.2163 174.4778 0001792  71.6421 288.4766 15.08840247120537
Source of the keplerian elements: AFSPC